Year,Month,Day,Hour,Minute,Value (Times are PST for temperature in C)
2015,01,19,00,00,4.10
2015,01,19,00,01,4.10
2015,01,19,00,02,4.10
2015,01,19,00,03,4.00
2015,01,19,00,04,4.10
2015,01,19,00,05,4.00
2015,01,19,00,06,4.00
2015,01,19,00,07,4.00
2015,01,19,00,08,4.00
2015,01,19,00,09,4.00
2015,01,19,00,10,4.00
2015,01,19,00,11,3.90
2015,01,19,00,12,3.90
2015,01,19,00,13,3.90
2015,01,19,00,14,3.90
2015,01,19,00,15,3.90
2015,01,19,00,16,3.90
2015,01,19,00,17,3.90
2015,01,19,00,18,3.90
2015,01,19,00,19,3.90
2015,01,19,00,20,3.80
2015,01,19,00,21,3.80
2015,01,19,00,22,3.80
2015,01,19,00,23,3.80
2015,01,19,00,24,3.80
2015,01,19,00,25,3.80
2015,01,19,00,26,3.80
2015,01,19,00,27,3.80
2015,01,19,00,28,3.80
2015,01,19,00,29,3.80
2015,01,19,00,30,3.80
2015,01,19,00,31,3.80
2015,01,19,00,32,3.80
2015,01,19,00,33,3.80
2015,01,19,00,34,3.80
2015,01,19,00,35,3.80
2015,01,19,00,36,3.80
2015,01,19,00,37,3.80
2015,01,19,00,38,3.80
2015,01,19,00,39,3.80
2015,01,19,00,40,3.80
2015,01,19,00,41,3.80
2015,01,19,00,42,3.80
2015,01,19,00,43,3.80
2015,01,19,00,44,3.80
2015,01,19,00,45,3.80
2015,01,19,00,46,3.70
2015,01,19,00,47,3.70
2015,01,19,00,48,3.70
2015,01,19,00,49,3.70
2015,01,19,00,50,3.70
2015,01,19,00,51,3.70
2015,01,19,00,52,3.70
2015,01,19,00,53,3.80
2015,01,19,00,54,3.80
2015,01,19,00,55,3.80
2015,01,19,00,56,3.80
2015,01,19,00,57,3.80
2015,01,19,00,58,3.90
2015,01,19,00,59,3.90
2015,01,19,01,00,3.90
2015,01,19,01,01,3.90
2015,01,19,01,02,3.90
2015,01,19,01,03,4.00
2015,01,19,01,04,4.00
2015,01,19,01,05,4.00
2015,01,19,01,06,4.00
2015,01,19,01,07,4.10
2015,01,19,01,08,4.10
2015,01,19,01,09,4.10
2015,01,19,01,10,4.10
2015,01,19,01,11,4.10
2015,01,19,01,12,4.20
2015,01,19,01,13,4.20
2015,01,19,01,14,4.20
2015,01,19,01,15,4.20
2015,01,19,01,16,4.20
2015,01,19,01,17,4.20
2015,01,19,01,18,4.20
2015,01,19,01,19,4.20
2015,01,19,01,20,4.20
2015,01,19,01,21,4.20
2015,01,19,01,22,4.20
2015,01,19,01,23,4.30
2015,01,19,01,24,4.30
2015,01,19,01,25,4.30
2015,01,19,01,26,4.30
2015,01,19,01,27,4.30
2015,01,19,01,28,4.40
2015,01,19,01,29,4.40
2015,01,19,01,30,4.40
2015,01,19,01,31,4.40
2015,01,19,01,32,4.40
2015,01,19,01,33,4.40
2015,01,19,01,34,4.40
2015,01,19,01,35,4.40
2015,01,19,01,36,4.30
2015,01,19,01,37,4.30
2015,01,19,01,38,4.30
2015,01,19,01,39,4.30
2015,01,19,01,40,4.30
2015,01,19,01,41,4.30
2015,01,19,01,42,4.30
2015,01,19,01,43,4.30
2015,01,19,01,44,4.30
2015,01,19,01,45,4.30
2015,01,19,01,46,4.30
2015,01,19,01,47,4.30
2015,01,19,01,48,4.30
2015,01,19,01,49,4.30
2015,01,19,01,50,4.30
2015,01,19,01,51,4.30
2015,01,19,01,52,4.30
2015,01,19,01,53,4.20
2015,01,19,01,54,4.20
2015,01,19,01,55,4.20
2015,01,19,01,56,4.20
2015,01,19,01,57,4.20
2015,01,19,01,58,4.20
2015,01,19,01,59,4.20
2015,01,19,02,00,4.20
2015,01,19,02,01,4.20
2015,01,19,02,02,4.20
2015,01,19,02,03,4.10
2015,01,19,02,04,4.10
2015,01,19,02,05,4.10
2015,01,19,02,06,4.10
2015,01,19,02,07,4.10
2015,01,19,02,08,4.00
2015,01,19,02,09,4.00
2015,01,19,02,10,4.00
2015,01,19,02,11,3.90
2015,01,19,02,12,3.90
2015,01,19,02,13,3.90
2015,01,19,02,14,3.90
2015,01,19,02,15,3.80
2015,01,19,02,16,3.80
2015,01,19,02,17,3.80
2015,01,19,02,18,3.80
2015,01,19,02,19,3.80
2015,01,19,02,20,3.70
2015,01,19,02,21,3.70
2015,01,19,02,22,3.60
2015,01,19,02,23,3.60
2015,01,19,02,24,3.50
2015,01,19,02,25,3.50
2015,01,19,02,26,3.50
2015,01,19,02,27,3.60
2015,01,19,02,28,3.60
2015,01,19,02,29,3.60
2015,01,19,02,30,3.60
2015,01,19,02,31,3.60
2015,01,19,02,32,3.60
2015,01,19,02,33,3.60
2015,01,19,02,34,3.60
2015,01,19,02,35,3.60
2015,01,19,02,36,3.60
2015,01,19,02,37,3.60
2015,01,19,02,38,3.60
2015,01,19,02,39,3.60
2015,01,19,02,40,3.50
2015,01,19,02,41,3.50
2015,01,19,02,42,3.50
2015,01,19,02,43,3.50
2015,01,19,02,44,3.50
2015,01,19,02,45,3.50
2015,01,19,02,46,3.50
2015,01,19,02,47,3.50
2015,01,19,02,48,3.50
2015,01,19,02,49,3.40
2015,01,19,02,50,3.40
2015,01,19,02,51,3.50
2015,01,19,02,52,3.50
2015,01,19,02,53,3.50
2015,01,19,02,54,3.50
2015,01,19,02,55,3.50
2015,01,19,02,56,3.40
2015,01,19,02,57,3.40
2015,01,19,02,58,3.40
2015,01,19,02,59,3.40
2015,01,19,03,00,3.30
2015,01,19,03,01,3.30
2015,01,19,03,02,3.30
2015,01,19,03,03,3.20
2015,01,19,03,04,3.20
2015,01,19,03,05,3.20
2015,01,19,03,06,3.20
2015,01,19,03,07,3.20
2015,01,19,03,08,3.10
2015,01,19,03,09,3.10
2015,01,19,03,10,3.00
2015,01,19,03,11,3.00
2015,01,19,03,12,3.00
2015,01,19,03,13,2.90
2015,01,19,03,14,2.90
2015,01,19,03,15,2.90
2015,01,19,03,16,2.90
2015,01,19,03,17,2.90
2015,01,19,03,18,2.90
2015,01,19,03,19,2.90
2015,01,19,03,20,2.90
2015,01,19,03,21,2.90
2015,01,19,03,22,2.90
2015,01,19,03,23,2.90
2015,01,19,03,24,2.90
2015,01,19,03,25,2.90
2015,01,19,03,26,2.90
2015,01,19,03,27,2.90
2015,01,19,03,28,2.90
2015,01,19,03,29,2.90
2015,01,19,03,30,2.90
2015,01,19,03,31,2.80
2015,01,19,03,32,2.80
2015,01,19,03,33,2.80
2015,01,19,03,34,2.80
2015,01,19,03,35,2.80
2015,01,19,03,36,2.70
2015,01,19,03,37,2.70
2015,01,19,03,38,2.70
2015,01,19,03,39,2.70
2015,01,19,03,40,2.70
2015,01,19,03,41,2.70
2015,01,19,03,42,2.70
2015,01,19,03,43,2.70
2015,01,19,03,44,2.70
2015,01,19,03,45,2.70
2015,01,19,03,49,2.70
2015,01,19,03,50,2.70
2015,01,19,03,51,2.70
2015,01,19,03,52,2.60
2015,01,19,03,53,2.60
2015,01,19,03,54,2.60
2015,01,19,03,55,2.60
2015,01,19,03,56,2.60
2015,01,19,03,57,2.60
2015,01,19,03,58,2.70
2015,01,19,03,59,2.70
2015,01,19,04,00,2.70
2015,01,19,04,01,2.70
2015,01,19,04,02,2.80
2015,01,19,04,03,2.80
2015,01,19,04,04,2.80
2015,01,19,04,05,2.90
2015,01,19,04,06,2.90
2015,01,19,04,07,3.00
2015,01,19,04,08,3.00
2015,01,19,04,09,3.00
2015,01,19,04,10,3.00
2015,01,19,04,11,3.00
2015,01,19,04,12,3.10
2015,01,19,04,13,3.10
2015,01,19,04,14,3.00
2015,01,19,04,15,3.00
2015,01,19,04,16,3.00
2015,01,19,04,17,2.90
2015,01,19,04,18,2.90
2015,01,19,04,19,2.90
2015,01,19,04,20,2.90
2015,01,19,04,21,2.90
2015,01,19,04,22,2.90
2015,01,19,04,23,2.90
2015,01,19,04,24,3.00
2015,01,19,04,25,3.00
2015,01,19,04,26,3.00
2015,01,19,04,27,3.00
2015,01,19,04,28,3.10
2015,01,19,04,29,3.10
2015,01,19,04,30,3.10
2015,01,19,04,31,3.10
2015,01,19,04,32,3.10
2015,01,19,04,33,3.10
2015,01,19,04,34,3.10
2015,01,19,04,35,3.20
2015,01,19,04,36,3.20
2015,01,19,04,37,3.20
2015,01,19,04,38,3.20
2015,01,19,04,39,3.20
2015,01,19,04,40,3.20
2015,01,19,04,41,3.20
2015,01,19,04,42,3.10
2015,01,19,04,43,3.10
2015,01,19,04,44,3.10
2015,01,19,04,45,3.10
2015,01,19,04,46,3.10
2015,01,19,04,47,3.10
2015,01,19,04,48,3.10
2015,01,19,04,49,3.10
2015,01,19,04,50,3.10
2015,01,19,04,51,3.10
2015,01,19,04,52,3.10
2015,01,19,04,53,3.10
2015,01,19,04,54,3.10
2015,01,19,04,55,3.10
2015,01,19,04,56,3.10
2015,01,19,04,57,3.10
2015,01,19,04,58,3.10
2015,01,19,04,59,3.10
2015,01,19,05,00,3.10
2015,01,19,05,01,3.10
2015,01,19,05,02,3.10
2015,01,19,05,03,3.10
2015,01,19,05,04,3.10
2015,01,19,05,05,3.10
2015,01,19,05,06,3.10
2015,01,19,05,07,3.00
2015,01,19,05,08,3.00
2015,01,19,05,09,3.00
2015,01,19,05,10,3.00
2015,01,19,05,11,2.90
2015,01,19,05,12,2.90
2015,01,19,05,13,2.90
2015,01,19,05,14,2.90
2015,01,19,05,15,2.90
2015,01,19,05,16,2.90
2015,01,19,05,17,2.90
2015,01,19,05,18,2.90
2015,01,19,05,19,2.80
2015,01,19,05,20,2.80
2015,01,19,05,21,2.80
2015,01,19,05,22,2.80
2015,01,19,05,23,2.80
2015,01,19,05,24,2.80
2015,01,19,05,25,2.80
2015,01,19,05,26,2.80
2015,01,19,05,27,2.80
2015,01,19,05,28,2.80
2015,01,19,05,29,2.80
2015,01,19,05,30,2.80
2015,01,19,05,31,2.90
2015,01,19,05,32,2.90
2015,01,19,05,33,2.90
2015,01,19,05,34,2.80
2015,01,19,05,35,2.80
2015,01,19,05,36,2.80
2015,01,19,05,37,2.80
2015,01,19,05,38,2.80
2015,01,19,05,39,2.70
2015,01,19,05,40,2.70
2015,01,19,05,41,2.70
2015,01,19,05,42,2.70
2015,01,19,05,43,2.70
2015,01,19,05,44,2.70
2015,01,19,05,45,2.60
2015,01,19,05,46,2.60
2015,01,19,05,47,2.60
2015,01,19,05,48,2.60
2015,01,19,05,49,2.60
2015,01,19,05,50,2.60
2015,01,19,05,51,2.60
2015,01,19,05,52,2.50
2015,01,19,05,53,2.50
2015,01,19,05,54,2.50
2015,01,19,05,55,2.40
2015,01,19,05,56,2.40
2015,01,19,05,57,2.40
2015,01,19,05,58,2.30
2015,01,19,05,59,2.30
2015,01,19,06,00,2.30
2015,01,19,06,01,2.30
2015,01,19,06,02,2.30
2015,01,19,06,03,2.20
2015,01,19,06,04,2.20
2015,01,19,06,05,2.20
2015,01,19,06,06,2.20
2015,01,19,06,07,2.20
2015,01,19,06,08,2.20
2015,01,19,06,09,2.20
2015,01,19,06,10,2.20
2015,01,19,06,11,2.20
2015,01,19,06,12,2.20
2015,01,19,06,13,2.10
2015,01,19,06,14,2.10
2015,01,19,06,15,2.10
2015,01,19,06,16,2.10
2015,01,19,06,17,2.10
2015,01,19,06,18,2.10
2015,01,19,06,19,2.10
2015,01,19,06,20,2.10
2015,01,19,06,21,2.00
2015,01,19,06,22,2.00
2015,01,19,06,23,2.00
2015,01,19,06,24,2.00
2015,01,19,06,25,2.00
2015,01,19,06,26,1.90
2015,01,19,06,27,1.90
2015,01,19,06,28,1.90
2015,01,19,06,29,1.90
2015,01,19,06,30,1.90
2015,01,19,06,31,1.90
2015,01,19,06,32,1.90
2015,01,19,06,33,1.90
2015,01,19,06,34,1.90
2015,01,19,06,35,1.90
2015,01,19,06,36,1.90
2015,01,19,06,37,1.90
2015,01,19,06,38,1.90
2015,01,19,06,39,1.90
2015,01,19,06,40,1.90
2015,01,19,06,41,1.90
2015,01,19,06,42,1.90
2015,01,19,06,43,1.80
2015,01,19,06,44,1.80
2015,01,19,06,45,1.80
2015,01,19,06,46,1.80
2015,01,19,06,47,1.80
2015,01,19,06,48,1.80
2015,01,19,06,49,1.80
2015,01,19,06,50,1.80
2015,01,19,06,51,1.80
2015,01,19,06,52,1.80
2015,01,19,06,53,1.80
2015,01,19,06,54,1.80
2015,01,19,06,55,1.80
2015,01,19,06,56,1.80
2015,01,19,06,57,1.80
2015,01,19,06,58,1.70
2015,01,19,06,59,1.70
2015,01,19,07,00,1.70
2015,01,19,07,01,1.60
2015,01,19,07,02,1.60
2015,01,19,07,03,1.60
2015,01,19,07,04,1.60
2015,01,19,07,05,1.50
2015,01,19,07,06,1.50
2015,01,19,07,07,1.50
2015,01,19,07,08,1.50
2015,01,19,07,09,1.50
2015,01,19,07,10,1.50
2015,01,19,07,11,1.50
2015,01,19,07,12,1.50
2015,01,19,07,13,1.50
2015,01,19,07,14,1.50
2015,01,19,07,15,1.50
2015,01,19,07,16,1.50
2015,01,19,07,17,1.50
2015,01,19,07,18,1.50
2015,01,19,07,19,1.50
2015,01,19,07,20,1.40
2015,01,19,07,21,1.40
2015,01,19,07,22,1.40
2015,01,19,07,23,1.40
2015,01,19,07,24,1.40
2015,01,19,07,25,1.40
2015,01,19,07,26,1.40
2015,01,19,07,27,1.40
2015,01,19,07,28,1.40
2015,01,19,07,29,1.40
2015,01,19,07,30,1.40
2015,01,19,07,31,1.40
2015,01,19,07,32,1.40
2015,01,19,07,33,1.40
2015,01,19,07,34,1.40
2015,01,19,07,35,1.40
2015,01,19,07,36,1.40
2015,01,19,07,37,1.40
2015,01,19,07,38,1.40
2015,01,19,07,39,1.40
2015,01,19,07,40,1.40
2015,01,19,07,41,1.40
2015,01,19,07,42,1.30
2015,01,19,07,43,1.30
2015,01,19,07,44,1.30
2015,01,19,07,45,1.30
2015,01,19,07,46,1.30
2015,01,19,07,47,1.30
2015,01,19,07,48,1.30
2015,01,19,07,49,1.30
2015,01,19,07,50,1.30
2015,01,19,07,51,1.30
2015,01,19,07,52,1.30
2015,01,19,07,53,1.30
2015,01,19,07,54,1.30
2015,01,19,07,55,1.30
2015,01,19,07,56,1.30
2015,01,19,07,57,1.30
2015,01,19,07,58,1.30
2015,01,19,07,59,1.30
2015,01,19,08,00,1.30
2015,01,19,08,01,1.30
2015,01,19,08,02,1.30
2015,01,19,08,03,1.30
2015,01,19,08,04,1.30
2015,01,19,08,05,1.30
2015,01,19,08,06,1.30
2015,01,19,08,07,1.30
2015,01,19,08,08,1.30
2015,01,19,08,09,1.30
2015,01,19,08,10,1.30
2015,01,19,08,11,1.30
2015,01,19,08,12,1.30
2015,01,19,08,13,1.30
2015,01,19,08,14,1.30
2015,01,19,08,15,1.30
2015,01,19,08,16,1.30
2015,01,19,08,17,1.30
2015,01,19,08,18,1.30
2015,01,19,08,19,1.30
2015,01,19,08,20,1.30
2015,01,19,08,21,1.30
2015,01,19,08,22,1.30
2015,01,19,08,23,1.40
2015,01,19,08,24,1.40
2015,01,19,08,25,1.40
2015,01,19,08,26,1.40
2015,01,19,08,27,1.40
2015,01,19,08,28,1.40
2015,01,19,08,29,1.40
2015,01,19,08,30,1.40
2015,01,19,08,31,1.50
2015,01,19,08,32,1.50
2015,01,19,08,33,1.50
2015,01,19,08,34,1.50
2015,01,19,08,35,1.50
2015,01,19,08,36,1.60
2015,01,19,08,37,1.60
2015,01,19,08,38,1.60
2015,01,19,08,39,1.60
2015,01,19,08,40,1.60
2015,01,19,08,41,1.60
2015,01,19,08,42,1.60
2015,01,19,08,43,1.60
2015,01,19,08,44,1.60
2015,01,19,08,45,1.60
2015,01,19,08,46,1.60
2015,01,19,08,47,1.60
2015,01,19,08,48,1.60
2015,01,19,08,49,1.60
2015,01,19,08,50,1.60
2015,01,19,08,51,1.60
2015,01,19,08,52,1.60
2015,01,19,08,53,1.60
2015,01,19,08,54,1.60
2015,01,19,08,55,1.70
2015,01,19,08,56,1.70
2015,01,19,08,57,1.70
2015,01,19,08,58,1.70
2015,01,19,08,59,1.70
2015,01,19,09,00,1.70
2015,01,19,09,01,1.70
2015,01,19,09,02,1.60
2015,01,19,09,03,1.60
2015,01,19,09,04,1.60
2015,01,19,09,05,1.60
2015,01,19,09,06,1.70
2015,01,19,09,07,1.70
2015,01,19,09,08,1.70
2015,01,19,09,09,1.80
2015,01,19,09,10,1.80
2015,01,19,09,11,1.80
2015,01,19,09,12,1.90
2015,01,19,09,13,1.90
2015,01,19,09,14,2.00
2015,01,19,09,15,2.00
2015,01,19,09,16,2.10
2015,01,19,09,17,2.10
2015,01,19,09,18,2.20
2015,01,19,09,19,2.20
2015,01,19,09,20,2.30
2015,01,19,09,21,2.30
2015,01,19,09,22,2.40
2015,01,19,09,23,2.50
2015,01,19,09,24,2.50
2015,01,19,09,25,2.60
2015,01,19,09,26,2.60
2015,01,19,09,27,2.60
2015,01,19,09,28,2.70
2015,01,19,09,29,2.70
2015,01,19,09,30,2.70
2015,01,19,09,31,2.70
2015,01,19,09,32,2.70
2015,01,19,09,33,2.70
2015,01,19,09,34,2.70
2015,01,19,09,35,2.70
2015,01,19,09,36,2.70
2015,01,19,09,37,2.70
2015,01,19,09,38,2.70
2015,01,19,09,39,2.80
2015,01,19,09,40,2.80
2015,01,19,09,41,2.80
2015,01,19,09,42,2.90
2015,01,19,09,43,2.90
2015,01,19,09,44,2.90
2015,01,19,09,45,3.00
2015,01,19,09,46,3.00
2015,01,19,09,47,3.00
2015,01,19,09,48,3.00
2015,01,19,09,49,3.10
2015,01,19,09,50,3.10
2015,01,19,09,51,3.20
2015,01,19,09,52,3.30
2015,01,19,09,53,3.30
2015,01,19,09,54,3.40
2015,01,19,09,55,3.50
2015,01,19,09,56,3.60
2015,01,19,09,57,3.70
2015,01,19,09,58,3.80
2015,01,19,09,59,3.90
2015,01,19,10,00,4.00
2015,01,19,10,01,4.10
2015,01,19,10,02,4.10
2015,01,19,10,03,4.20
2015,01,19,10,04,4.20
2015,01,19,10,05,4.30
2015,01,19,10,06,4.30
2015,01,19,10,07,4.40
2015,01,19,10,08,4.40
2015,01,19,10,09,4.50
2015,01,19,10,10,4.50
2015,01,19,10,11,4.60
2015,01,19,10,12,4.60
2015,01,19,10,13,4.60
2015,01,19,10,14,4.70
2015,01,19,10,15,4.70
2015,01,19,10,16,4.80
2015,01,19,10,17,4.80
2015,01,19,10,18,4.90
2015,01,19,10,19,4.90
2015,01,19,10,20,5.00
2015,01,19,10,21,5.00
2015,01,19,10,22,5.10
2015,01,19,10,23,5.10
2015,01,19,10,24,5.20
2015,01,19,10,25,5.20
2015,01,19,10,26,5.30
2015,01,19,10,27,5.40
2015,01,19,10,28,5.40
2015,01,19,10,29,5.50
2015,01,19,10,30,5.60
2015,01,19,10,31,5.70
2015,01,19,10,32,5.80
2015,01,19,10,33,5.90
2015,01,19,10,34,6.00
2015,01,19,10,35,6.00
2015,01,19,10,36,6.10
2015,01,19,10,37,6.20
2015,01,19,10,38,6.30
2015,01,19,10,39,6.30
2015,01,19,10,40,6.40
2015,01,19,10,41,6.40
2015,01,19,10,42,6.50
2015,01,19,10,43,6.60
2015,01,19,10,44,6.70
2015,01,19,10,45,6.70
2015,01,19,10,46,6.80
2015,01,19,10,47,6.90
2015,01,19,10,48,6.90
2015,01,19,10,49,7.00
2015,01,19,10,50,7.00
2015,01,19,10,51,7.10
2015,01,19,10,52,7.10
2015,01,19,10,53,7.10
2015,01,19,10,54,7.20
2015,01,19,10,55,7.20
2015,01,19,10,56,7.20
2015,01,19,10,57,7.30
2015,01,19,10,58,7.40
2015,01,19,10,59,7.40
2015,01,19,11,00,7.50
2015,01,19,11,01,7.60
2015,01,19,11,02,7.60
2015,01,19,11,03,7.60
2015,01,19,11,04,7.70
2015,01,19,11,05,7.70
2015,01,19,11,06,7.80
2015,01,19,11,07,7.80
2015,01,19,11,08,7.80
2015,01,19,11,09,7.80
2015,01,19,11,10,7.80
2015,01,19,11,11,7.90
2015,01,19,11,12,7.90
2015,01,19,11,13,8.00
2015,01,19,11,14,8.10
2015,01,19,11,15,8.10
2015,01,19,11,16,8.20
2015,01,19,11,17,8.20
2015,01,19,11,18,8.20
2015,01,19,11,19,8.20
2015,01,19,11,20,8.20
2015,01,19,11,21,8.20
2015,01,19,11,22,8.30
2015,01,19,11,23,8.30
2015,01,19,11,24,8.40
2015,01,19,11,25,8.40
2015,01,19,11,26,8.50
2015,01,19,11,27,8.50
2015,01,19,11,28,8.60
2015,01,19,11,29,8.60
2015,01,19,11,30,8.70
2015,01,19,11,31,8.70
2015,01,19,11,32,8.70
2015,01,19,11,33,8.80
2015,01,19,11,34,8.80
2015,01,19,11,35,8.90
2015,01,19,11,36,8.90
2015,01,19,11,37,8.90
2015,01,19,11,38,8.80
2015,01,19,11,39,8.80
2015,01,19,11,40,8.70
2015,01,19,11,41,8.70
2015,01,19,11,42,8.60
2015,01,19,11,43,8.60
2015,01,19,11,44,8.60
2015,01,19,11,45,8.60
2015,01,19,11,46,8.70
2015,01,19,11,47,8.70
2015,01,19,11,48,8.70
2015,01,19,11,49,8.70
2015,01,19,11,50,8.70
2015,01,19,11,51,8.80
2015,01,19,11,52,8.80
2015,01,19,11,53,8.80
2015,01,19,11,54,8.80
2015,01,19,11,55,8.80
2015,01,19,11,56,8.90
2015,01,19,11,57,8.90
2015,01,19,11,58,9.00
2015,01,19,11,59,9.10
2015,01,19,12,00,9.10
2015,01,19,12,01,9.10
2015,01,19,12,02,9.20
2015,01,19,12,03,9.20
2015,01,19,12,04,9.30
2015,01,19,12,05,9.40
2015,01,19,12,06,9.40
2015,01,19,12,07,9.50
2015,01,19,12,08,9.50
2015,01,19,12,09,9.60
2015,01,19,12,10,9.60
2015,01,19,12,11,9.70
2015,01,19,12,12,9.70
2015,01,19,12,13,9.80
2015,01,19,12,14,9.80
2015,01,19,12,15,9.80
2015,01,19,12,16,9.80
2015,01,19,12,17,9.90
2015,01,19,12,18,9.90
2015,01,19,12,19,9.90
2015,01,19,12,20,10.00
2015,01,19,12,21,10.00
2015,01,19,12,22,10.10
2015,01,19,12,23,10.10
2015,01,19,12,24,10.10
2015,01,19,12,25,10.10
2015,01,19,12,26,10.20
2015,01,19,12,27,10.30
2015,01,19,12,28,10.30
2015,01,19,12,29,10.30
2015,01,19,12,30,10.40
2015,01,19,12,31,10.40
2015,01,19,12,32,10.40
2015,01,19,12,33,10.50
2015,01,19,12,34,10.40
2015,01,19,12,35,10.40
2015,01,19,12,36,10.40
2015,01,19,12,37,10.30
2015,01,19,12,38,10.30
2015,01,19,12,39,10.30
2015,01,19,12,40,10.30
2015,01,19,12,41,10.30
2015,01,19,12,42,10.40
2015,01,19,12,43,10.40
2015,01,19,12,44,10.40
2015,01,19,12,45,10.40
2015,01,19,12,46,10.40
2015,01,19,12,47,10.40
2015,01,19,12,48,10.30
2015,01,19,12,49,10.30
2015,01,19,12,50,10.20
2015,01,19,12,51,10.20
2015,01,19,12,52,10.20
2015,01,19,12,53,10.10
2015,01,19,12,54,10.10
2015,01,19,12,55,10.00
2015,01,19,12,56,10.00
2015,01,19,12,57,9.90
2015,01,19,12,58,9.80
2015,01,19,12,59,9.70
2015,01,19,13,00,9.60
2015,01,19,13,01,9.60
2015,01,19,13,02,9.50
2015,01,19,13,03,9.40
2015,01,19,13,04,9.40
2015,01,19,13,05,9.40
2015,01,19,13,06,9.30
2015,01,19,13,07,9.20
2015,01,19,13,08,9.10
2015,01,19,13,09,9.10
2015,01,19,13,10,9.10
2015,01,19,13,11,9.00
2015,01,19,13,12,9.00
2015,01,19,13,13,8.90
2015,01,19,13,14,8.90
2015,01,19,13,15,8.80
2015,01,19,13,16,8.80
2015,01,19,13,17,8.80
2015,01,19,13,18,8.70
2015,01,19,13,19,8.70
2015,01,19,13,20,8.70
2015,01,19,13,21,8.60
2015,01,19,13,22,8.60
2015,01,19,13,23,8.60
2015,01,19,13,24,8.60
2015,01,19,13,25,8.60
2015,01,19,13,26,8.60
2015,01,19,13,27,8.60
2015,01,19,13,28,8.60
2015,01,19,13,29,8.60
2015,01,19,13,30,8.60
2015,01,19,13,31,8.60
2015,01,19,13,32,8.60
2015,01,19,13,33,8.60
2015,01,19,13,34,8.60
2015,01,19,13,35,8.50
2015,01,19,13,36,8.50
2015,01,19,13,37,8.40
2015,01,19,13,38,8.40
2015,01,19,13,39,8.40
2015,01,19,13,40,8.40
2015,01,19,13,41,8.40
2015,01,19,13,42,8.40
2015,01,19,13,43,8.40
2015,01,19,13,44,8.40
2015,01,19,13,45,8.40
2015,01,19,13,46,8.40
2015,01,19,13,47,8.40
2015,01,19,13,48,8.40
2015,01,19,13,49,8.40
2015,01,19,13,50,8.50
2015,01,19,13,51,8.50
2015,01,19,13,52,8.60
2015,01,19,13,53,8.60
2015,01,19,13,54,8.70
2015,01,19,13,55,8.70
2015,01,19,13,56,8.70
2015,01,19,13,57,8.80
2015,01,19,13,58,8.90
2015,01,19,13,59,9.00
2015,01,19,14,00,9.10
2015,01,19,14,01,9.20
2015,01,19,14,02,9.20
2015,01,19,14,03,9.20
2015,01,19,14,04,9.20
2015,01,19,14,05,9.20
2015,01,19,14,06,9.30
2015,01,19,14,07,9.30
2015,01,19,14,08,9.30
2015,01,19,14,09,9.30
2015,01,19,14,10,9.30
2015,01,19,14,11,9.40
2015,01,19,14,12,9.40
2015,01,19,14,13,9.40
2015,01,19,14,14,9.50
2015,01,19,14,15,9.50
2015,01,19,14,16,9.50
2015,01,19,14,17,9.60
2015,01,19,14,18,9.60
2015,01,19,14,19,9.60
2015,01,19,14,20,9.60
2015,01,19,14,21,9.60
2015,01,19,14,22,9.50
2015,01,19,14,23,9.50
2015,01,19,14,24,9.40
2015,01,19,14,25,9.40
2015,01,19,14,26,9.40
2015,01,19,14,27,9.30
2015,01,19,14,28,9.30
2015,01,19,14,29,9.30
2015,01,19,14,30,9.30
2015,01,19,14,31,9.20
2015,01,19,14,32,9.30
2015,01,19,14,33,9.30
2015,01,19,14,34,9.30
2015,01,19,14,35,9.30
2015,01,19,14,36,9.30
2015,01,19,14,37,9.30
2015,01,19,14,38,9.30
2015,01,19,14,39,9.30
2015,01,19,14,40,9.30
2015,01,19,14,41,9.40
2015,01,19,14,42,9.40
2015,01,19,14,43,9.40
2015,01,19,14,44,9.50
2015,01,19,14,45,9.50
2015,01,19,14,46,9.60
2015,01,19,14,47,9.60
2015,01,19,14,48,9.70
2015,01,19,14,49,9.80
2015,01,19,14,50,9.80
2015,01,19,14,51,9.90
2015,01,19,14,52,9.90
2015,01,19,14,53,10.00
2015,01,19,14,54,10.10
2015,01,19,14,55,10.10
2015,01,19,14,56,10.10
2015,01,19,14,57,10.20
2015,01,19,14,58,10.20
2015,01,19,14,59,10.20
2015,01,19,15,00,10.20
2015,01,19,15,01,10.30
2015,01,19,15,02,10.30
2015,01,19,15,03,10.30
2015,01,19,15,04,10.30
2015,01,19,15,05,10.30
2015,01,19,15,06,10.20
2015,01,19,15,07,10.20
2015,01,19,15,08,10.20
2015,01,19,15,09,10.20
2015,01,19,15,10,10.10
2015,01,19,15,11,10.10
2015,01,19,15,12,10.10
2015,01,19,15,13,10.10
2015,01,19,15,14,10.00
2015,01,19,15,15,10.00
2015,01,19,15,16,9.90
2015,01,19,15,17,9.80
2015,01,19,15,18,9.80
2015,01,19,15,19,9.70
2015,01,19,15,20,9.70
2015,01,19,15,21,9.60
2015,01,19,15,22,9.60
2015,01,19,15,23,9.60
2015,01,19,15,24,9.60
2015,01,19,15,25,9.60
2015,01,19,15,26,9.60
2015,01,19,15,27,9.50
2015,01,19,15,28,9.50
2015,01,19,15,29,9.40
2015,01,19,15,30,9.40
2015,01,19,15,31,9.30
2015,01,19,15,32,9.20
2015,01,19,15,33,9.20
2015,01,19,15,34,9.10
2015,01,19,15,35,9.10
2015,01,19,15,36,9.00
2015,01,19,15,37,9.00
2015,01,19,15,38,9.00
2015,01,19,15,39,8.90
2015,01,19,15,40,8.90
2015,01,19,15,41,8.90
2015,01,19,15,42,8.90
2015,01,19,15,43,8.80
2015,01,19,15,44,8.80
2015,01,19,15,45,8.80
2015,01,19,15,46,8.70
2015,01,19,15,47,8.70
2015,01,19,15,48,8.60
2015,01,19,15,49,8.60
2015,01,19,15,50,8.50
2015,01,19,15,51,8.40
2015,01,19,15,52,8.40
2015,01,19,15,53,8.30
2015,01,19,15,54,8.30
2015,01,19,15,55,8.20
2015,01,19,15,56,8.20
2015,01,19,15,57,8.20
2015,01,19,15,58,8.20
2015,01,19,15,59,8.20
2015,01,19,16,00,8.20
2015,01,19,16,01,8.20
2015,01,19,16,02,8.10
2015,01,19,16,03,8.10
2015,01,19,16,04,8.10
2015,01,19,16,05,8.00
2015,01,19,16,06,8.00
2015,01,19,16,07,7.90
2015,01,19,16,08,7.90
2015,01,19,16,09,7.90
2015,01,19,16,10,7.80
2015,01,19,16,11,7.80
2015,01,19,16,12,7.80
2015,01,19,16,13,7.70
2015,01,19,16,14,7.70
2015,01,19,16,15,7.60
2015,01,19,16,16,7.60
2015,01,19,16,17,7.50
2015,01,19,16,18,7.50
2015,01,19,16,19,7.40
2015,01,19,16,20,7.40
2015,01,19,16,21,7.30
2015,01,19,16,22,7.30
2015,01,19,16,23,7.20
2015,01,19,16,24,7.20
2015,01,19,16,25,7.20
2015,01,19,16,26,7.10
2015,01,19,16,27,7.10
2015,01,19,16,28,7.00
2015,01,19,16,29,7.00
2015,01,19,16,30,6.90
2015,01,19,16,31,6.90
2015,01,19,16,32,6.80
2015,01,19,16,33,6.80
2015,01,19,16,34,6.70
2015,01,19,16,35,6.60
2015,01,19,16,36,6.60
2015,01,19,16,37,6.50
2015,01,19,16,38,6.50
2015,01,19,16,39,6.40
2015,01,19,16,40,6.40
2015,01,19,16,41,6.30
2015,01,19,16,42,6.30
2015,01,19,16,43,6.20
2015,01,19,16,44,6.20
2015,01,19,16,45,6.10
2015,01,19,16,46,6.10
2015,01,19,16,47,6.10
2015,01,19,16,48,6.10
2015,01,19,16,49,6.10
2015,01,19,16,50,6.10
2015,01,19,16,51,6.10
2015,01,19,16,52,6.00
2015,01,19,16,53,6.00
2015,01,19,16,54,6.00
2015,01,19,16,55,5.90
2015,01,19,16,56,5.90
2015,01,19,16,57,5.90
2015,01,19,16,58,5.90
2015,01,19,16,59,5.90
2015,01,19,17,00,5.90
2015,01,19,17,01,5.90
2015,01,19,17,02,5.90
2015,01,19,17,03,5.80
2015,01,19,17,04,5.80
2015,01,19,17,05,5.90
2015,01,19,17,06,5.90
2015,01,19,17,07,6.00
2015,01,19,17,08,6.00
2015,01,19,17,09,5.90
2015,01,19,17,10,5.90
2015,01,19,17,11,5.90
2015,01,19,17,12,5.90
2015,01,19,17,13,5.90
2015,01,19,17,14,5.80
2015,01,19,17,15,5.80
2015,01,19,17,16,5.80
2015,01,19,17,17,5.70
2015,01,19,17,18,5.70
2015,01,19,17,19,5.70
2015,01,19,17,20,5.60
2015,01,19,17,21,5.60
2015,01,19,17,22,5.50
2015,01,19,17,23,5.50
2015,01,19,17,24,5.40
2015,01,19,17,25,5.40
2015,01,19,17,26,5.40
2015,01,19,17,27,5.30
2015,01,19,17,28,5.30
2015,01,19,17,29,5.30
2015,01,19,17,30,5.20
2015,01,19,17,31,5.20
2015,01,19,17,32,5.20
2015,01,19,17,33,5.20
2015,01,19,17,34,5.10
2015,01,19,17,35,5.10
2015,01,19,17,36,5.00
2015,01,19,17,37,4.90
2015,01,19,17,38,4.90
2015,01,19,17,39,4.80
2015,01,19,17,40,4.80
2015,01,19,17,41,4.70
2015,01,19,17,42,4.70
2015,01,19,17,43,4.60
2015,01,19,17,44,4.60
2015,01,19,17,45,4.60
2015,01,19,17,46,4.60
2015,01,19,17,47,4.50
2015,01,19,17,48,4.50
2015,01,19,17,49,4.50
2015,01,19,17,50,4.40
2015,01,19,17,51,4.40
2015,01,19,17,52,4.40
2015,01,19,17,53,4.40
2015,01,19,17,54,4.40
2015,01,19,17,55,4.30
2015,01,19,17,56,4.30
2015,01,19,17,57,4.30
2015,01,19,17,58,4.30
2015,01,19,17,59,4.30
2015,01,19,18,00,4.30
2015,01,19,18,01,4.30
2015,01,19,18,02,4.20
2015,01,19,18,03,4.20
2015,01,19,18,04,4.20
2015,01,19,18,05,4.20
2015,01,19,18,06,4.20
2015,01,19,18,07,4.20